Location: Pine Mountain Observatory
(43.7910°N, 120.9377°W)
Time: 21:03:06
(UTC-07:00)

Vanguard 1 Rocket - Pass Details

Date: 28 May 2019
Orbit: 652 x 4224 km, 34.3° (Epoch: 18 June)

Event Time Altitude Azimuth Distance (km) Brightness Sun altitude
Exits shadow 02:38:56 31° 162° (SSE) 1,467 8.0 -21.0°
Drops below altitude 10° 02:44:45 10° 107° (ESE) 3,158 10.2 -20.6°
Sets 02:48:47 0° 99° (E) 4,652 11.3 -20.2°
